Wind_Speed
33 32 32 32 31 30 26 24 26 25 24 24 22 18 18 24 26 26 24 22 21 21 21 21 21 21 21 22 22 23 23 23 22 21 20 19 18 18 18 17 17 17 17 17 17 17 17 18 18
33 32 33 33 32 30 24 25 28 28 28 26 23 22 21 26 26 23 23 22 22 22 22 23 23 23 22 23 23 23 23 23 23 23 22 21 20 19 19 18 18 18 18 18 18 19 19 19 19
32 32 33 33 31 26 22 24 29 30 27 26 26 25 25 32 26 23 24 24 23 23 23 23 23 24 23 23 23 23 24 24 24 24 23 22 21 20 20 19 19 19 19 19 19 19 19 19 19
33 33 34 32 27 21 23 27 30 28 25 27 28 27 30 32 25 23 25 25 24 24 23 24 24 24 24 24 24 24 24 24 24 24 24 23 22 22 21 20 20 20 20 20 20 20 20 20 20
35 35 35 32 25 21 24 27 30 26 25 27 27 28 34 30 28 27 27 26 26 25 24 25 25 25 25 25 25 25 24 24 25 24 24 23 23 22 22 21 21 20 21 21 21 21 21 20 20
37 36 36 32 24 23 25 27 31 26 26 27 27 28 35 30 30 29 28 28 28 26 26 26 26 26 25 25 25 25 25 24 24 24 24 24 23 23 22 22 21 21 21 21 21 21 21 21 21
38 37 36 33 27 26 26 29 33 29 28 27 27 28 34 33 30 30 30 30 29 27 27 28 27 26 26 26 25 25 24 24 24 24 24 24 24 23 23 22 22 22 21 21 21 21 21 21 21
39 39 38 34 29 26 27 32 36 32 29 30 30 28 33 34 28 30 30 31 30 29 28 29 28 28 27 27 26 25 24 24 24 24 24 23 23 24 23 23 23 22 22 21 21 22 22 22 22
41 41 39 33 30 28 30 36 39 32 31 33 32 29 33 33 27 28 30 31 31 31 30 30 30 29 28 28 27 26 25 24 24 24 24 24 23 24 24 23 23 23 23 23 23 23 23 23 23
43 42 37 33 32 33 35 39 40 33 33 34 33 32 33 33 30 29 30 31 32 32 32 31 31 31 30 29 28 28 27 25 25 25 25 24 24 24 24 24 24 24 24 25 24 24 24 25 25
43 41 37 35 36 37 37 39 38 35 35 34 34 34 34 33 31 30 31 32 32 33 33 32 32 31 31 30 30 29 28 27 27 26 26 25 25 24 24 25 25 26 26 27 26 26 27 27 27
43 41 39 38 38 37 35 37 37 37 36 34 35 36 34 30 30 30 31 32 33 33 33 33 33 33 32 31 31 30 29 29 29 28 27 27 26 26 25 25 26 26 27 28 29 29 29 29 29
44 42 40 39 38 35 35 37 37 37 36 35 36 35 32 28 29 31 31 32 32 32 32 33 34 34 33 33 32 31 31 31 30 30 29 29 28 28 27 26 26 27 28 29 30 31 31 31 32
45 43 41 40 38 36 36 37 37 35 35 36 36 35 32 30 30 32 32 32 32 32 32 33 34 35 35 34 34 33 32 32 32 31 31 30 30 30 29 29 28 29 29 30 31 32 33 33 34
44 42 41 40 38 38 38 37 36 35 36 36 35 34 32 31 32 33 33 32 33 34 34 34 35 36 36 35 35 35 34 33 33 33 33 32 32 32 32 31 31 31 31 32 32 33 34 34 35
44 43 42 40 39 39 38 35 34 35 36 35 34 33 32 31 32 32 33 33 34 35 36 36 36 36 37 37 37 36 36 35 34 33 33 33 33 33 34 34 33 33 34 34 34 34 35 35 36
44 43 41 41 40 39 38 35 34 35 34 33 32 32 32 31 31 31 32 33 34 36 38 38 38 38 38 39 38 38 37 36 36 35 34 34 34 35 35 35 35 35 35 35 36 36 36 37 37
42 42 41 41 40 39 37 35 34 34 33 32 31 31 32 31 30 31 32 34 36 38 39 40 40 40 40 41 40 39 38 37 37 36 35 35 35 36 36 37 37 37 37 37 37 37 37 38 38
41 41 40 39 40 39 37 36 34 33 32 31 31 32 33 33 33 33 34 35 36 38 40 42 42 41 42 43 41 40 40 39 38 38 37 36 36 36 37 38 38 37 37 37 37 38 38 38 39
37 37 37 38 38 38 37 36 34 33 33 33 34 34 35 36 36 37 37 38 39 40 41 42 43 43 43 44 43 43 43 41 39 38 38 37 37 37 37 38 38 38 38 38 38 38 38 40 40
34 34 35 35 36 36 37 36 34 34 34 35 36 37 38 39 40 41 42 43 43 43 44 44 44 45 45 45 46 45 43 42 41 40 39 38 38 38 38 38 39 39 39 39 39 39 39 40 41
31 31 31 32 33 34 35 36 34 34 35 37 38 40 41 43 44 45 46 47 48 48 48 47 47 48 48 48 48 47 45 44 43 42 40 39 39 39 39 39 40 40 40 40 40 40 40 40 41
27 27 28 29 31 32 33 36 35 36 37 39 41 43 45 46 48 49 50 50 51 52 52 52 51 51 50 49 49 48 47 46 45 43 42 40 40 39 39 40 40 40 40 40 41 41 41 42 42
24 25 26 28 30 32 32 35 35 38 40 42 44 46 47 49 49 50 51 52 53 54 55 55 55 54 52 51 50 49 48 47 46 45 43 42 40 40 40 40 40 40 40 41 41 42 42 43 44
24 24 26 28 30 32 34 36 36 39 41 44 46 48 49 49 49 49 50 51 52 53 54 55 56 55 54 53 51 50 49 48 47 46 44 42 41 40 40 40 40 40 40 41 42 43 43 45 46
24 25 27 30 32 34 36 38 38 40 42 44 45 47 48 49 49 50 50 50 51 52 53 54 55 56 55 54 52 51 49 48 47 46 45 43 41 41 40 40 40 40 40 41 43 44 45 46 47
25 26 28 31 33 36 37 38 38 39 41 43 45 47 48 49 49 49 50 50 50 51 52 52 54 55 55 54 53 51 49 48 47 47 45 43 41 41 40 40 40 40 41 41 43 44 46 47 48
27 27 29 31 33 36 36 35 35 36 38 41 42 44 45 46 47 48 49 50 50 50 51 52 52 53 54 54 53 50 48 47 47 46 45 43 42 41 40 40 40 41 41 42 43 45 46 47 48
27 28 29 31 33 34 35 32 31 33 35 37 39 41 42 44 46 47 48 49 49 50 50 51 50 52 52 51 50 49 48 47 46 45 44 43 41 40 40 40 40 40 41 43 44 45 47 48 49
26 27 28 29 30 31 33 27 25 29 32 35 37 39 40 42 45 46 47 47 47 47 48 49 49 49 48 48 47 47 46 46 45 44 43 41 40 39 39 39 40 40 42 43 45 46 47 49 50
Wind_Direction
240 240 240 240 241 241 240 243 245 244 243 242 245 246 247 247 246 248 255 254 253 252 251 252 253 254 255 254 255 255 255 256 257 259 260 262 263 263 262 261 261 261 262 263 264 265 267 270 272
239 239 239 240 240 241 240 243 247 246 245 247 246 243 241 247 249 252 254 254 253 253 254 254 256 256 256 255 255 255 255 255 256 257 258 260 261 262 261 261 261 262 263 263 265 267 269 272 274
236 237 238 239 240 242 240 241 245 246 247 248 246 244 241 245 250 250 253 254 254 254 255 256 257 257 257 257 257 256 256 255 255 256 256 258 259 260 260 260 261 262 263 265 267 270 271 273 274
234 236 238 239 239 237 239 243 248 249 247 246 247 247 246 252 253 248 250 251 253 254 255 256 257 257 258 259 259 259 258 256 256 256 255 256 258 259 259 259 260 261 263 265 267 270 271 273 275
234 236 239 240 237 235 237 243 251 250 247 246 245 247 250 251 251 248 250 251 252 253 254 256 257 257 258 259 260 261 261 259 258 257 256 257 258 259 259 259 259 260 262 264 265 267 269 271 273
234 238 241 242 238 235 239 243 251 251 250 249 247 246 253 251 250 249 250 250 251 251 253 255 257 257 259 260 261 262 263 263 262 260 259 259 260 260 260 260 260 260 261 262 264 267 268 270 272
235 238 242 243 238 234 239 246 251 250 249 251 248 245 253 253 249 249 250 251 251 251 253 255 257 259 261 263 264 265 265 265 265 264 263 263 263 262 262 262 262 261 261 263 265 267 269 271 273
236 239 240 241 241 237 239 246 250 248 248 250 250 247 251 256 251 251 251 252 253 254 254 257 258 260 263 266 267 268 268 268 268 267 267 266 265 265 265 264 264 264 263 263 265 268 270 272 273
235 238 240 241 243 239 238 243 249 248 247 248 251 249 252 260 257 254 253 253 254 255 256 257 260 262 265 267 269 270 271 271 271 270 269 269 268 267 266 266 265 265 264 264 266 268 270 271 273
235 238 241 241 240 237 234 239 247 249 247 249 252 251 253 258 257 253 253 254 254 255 257 258 261 264 266 268 270 271 272 273 272 271 271 271 271 269 269 267 266 266 264 264 265 267 268 270 273
234 238 239 239 238 238 236 240 247 248 248 249 252 254 252 254 255 254 254 255 255 256 258 259 260 263 265 267 269 271 273 274 273 273 272 272 272 271 270 269 267 267 265 264 265 265 267 269 272
233 235 236 236 237 238 238 241 244 246 248 249 250 253 255 254 256 256 255 255 256 257 259 260 261 261 263 266 268 270 272 272 273 273 273 273 272 273 272 272 270 268 267 265 265 266 267 269 272
232 233 233 235 237 237 237 240 243 246 249 250 253 256 259 256 253 254 255 255 256 257 258 259 261 261 262 264 266 267 269 271 272 274 274 273 273 273 274 274 273 272 270 268 267 267 268 269 272
231 232 232 233 235 235 236 239 243 246 249 250 253 256 258 256 254 254 255 255 257 258 258 257 259 261 262 263 265 266 267 269 271 272 273 274 274 274 275 276 276 275 274 272 270 270 270 271 273
231 232 232 232 234 235 236 238 243 244 246 249 252 255 256 255 255 255 256 256 256 257 258 258 258 261 262 264 264 266 266 267 269 271 272 274 274 275 276 277 278 278 277 275 274 273 273 274 275
230 231 231 232 233 234 236 236 239 242 244 248 251 254 256 256 256 256 256 257 256 257 258 259 259 260 262 263 264 265 265 266 268 270 271 273 275 276 277 277 279 280 279 278 277 276 276 276 277
230 231 232 232 232 233 234 234 235 239 243 246 249 253 256 257 258 258 258 257 256 257 258 259 259 260 261 262 263 264 265 266 267 269 271 272 275 276 278 279 279 280 280 280 280 279 278 278 279
231 231 232 233 232 232 233 233 234 238 241 245 249 253 256 258 259 259 258 258 257 257 258 258 259 259 260 262 262 264 265 265 266 268 269 271 274 276 278 280 281 281 280 280 281 281 280 280 280
231 231 233 234 234 232 232 233 235 237 242 245 249 253 257 259 260 260 260 260 260 259 259 259 259 259 259 260 261 262 263 264 265 267 268 271 273 275 278 279 281 281 281 281 282 281 281 281 281
230 231 233 234 234 234 233 234 236 239 243 247 251 254 257 260 261 261 262 261 261 261 260 259 259 258 257 258 259 259 260 262 264 266 267 270 272 275 277 279 280 281 281 282 282 282 283 283 282
229 231 232 234 236 238 237 235 239 243 248 252 255 257 259 261 263 263 263 262 261 260 259 258 257 257 255 255 255 257 259 261 263 265 267 269 271 273 276 279 281 282 282 282 282 283 284 284 284
228 230 234 236 238 240 243 242 240 249 253 256 259 261 263 264 265 265 264 263 262 261 260 258 256 255 254 253 254 255 256 258 260 262 265 267 270 273 275 278 280 281 282 283 283 284 285 286 287
228 231 236 239 242 244 248 252 247 255 259 262 264 265 266 266 266 266 265 264 262 261 260 258 256 254 253 252 252 252 253 254 257 260 262 265 268 271 274 276 279 281 283 284 284 284 286 287 288
230 235 240 245 248 251 254 259 258 265 268 270 271 271 270 269 268 267 265 264 262 260 259 257 256 254 252 251 250 250 251 252 255 257 260 263 266 269 273 276 279 281 283 284 285 286 287 288 289
235 241 248 252 255 259 262 265 266 272 275 276 276 276 274 273 271 269 267 265 263 261 258 256 255 253 251 250 248 248 249 250 252 255 257 261 264 268 271 275 278 281 283 285 287 288 289 290 291
242 249 256 261 263 265 268 271 273 276 277 277 277 277 276 276 274 273 270 267 264 261 258 255 253 251 250 248 247 246 246 247 249 252 255 259 262 266 270 274 278 281 284 286 287 288 289 291 292
249 256 262 267 269 272 274 277 279 280 280 279 279 279 278 278 277 275 273 270 266 262 258 254 251 249 247 246 244 244 244 245 247 250 253 257 261 265 270 274 278 281 284 286 287 289 290 292 293
253 258 264 268 273 276 277 281 285 286 285 284 283 283 283 282 280 279 276 272 268 263 258 253 249 246 243 242 242 241 241 242 245 248 251 255 260 264 269 274 277 282 285 286 287 289 290 292 293
255 260 265 269 274 279 281 284 289 290 289 289 290 291 290 289 286 282 278 274 268 262 256 251 246 243 240 239 238 237 237 240 243 246 250 254 259 264 269 274 278 281 284 286 288 290 291 293 294
255 261 266 271 275 279 283 290 292 289 290 292 294 293 292 291 288 285 282 276 269 261 252 246 242 239 236 234 234 234 234 237 241 245 249 254 259 264 269 274 278 282 285 286 288 290 292 294 296
Height
5805 5808 5810 5813 5816 5819 5823 5825 5826 5828 5830 5832 5835 5838 5839 5837 5838 5842 5842 5843 5844 5845 5846 5847 5848 5848 5849 5850 5851 5851 5852 5853 5854 5855 5855 5855 5855 5855 5855 5856 5856 5856 5856 5856 5857 5857 5857 5857 5857
5800 5803 5805 5808 5810 5814 5820 5821 5821 5823 5825 5828 5832 5833 5835 5833 5835 5837 5837 5839 5841 5842 5843 5844 5845 5845 5846 5847 5847 5848 5849 5850 5851 5851 5851 5852 5852 5852 5852 5852 5853 5853 5853 5853 5854 5854 5854 5854 5853
5794 5796 5800 5802 5806 5811 5815 5815 5815 5817 5821 5824 5826 5828 5830 5827 5832 5834 5834 5835 5837 5838 5840 5840 5841 5842 5843 5843 5844 5844 5845 5846 5847 5848 5848 5848 5848 5848 5848 5849 5849 5849 5850 5850 5850 5850 5850 5850 5850
5789 5791 5795 5798 5803 5808 5810 5809 5810 5813 5817 5819 5821 5823 5824 5824 5829 5831 5830 5831 5833 5835 5836 5837 5838 5838 5839 5840 5840 5841 5842 5842 5843 5844 5844 5844 5845 5845 5845 5845 5845 5846 5846 5846 5847 5847 5847 5847 5847
5783 5786 5789 5792 5799 5803 5804 5805 5805 5808 5811 5814 5816 5818 5817 5821 5823 5825 5826 5827 5829 5831 5832 5833 5833 5834 5835 5836 5836 5837 5838 5838 5839 5840 5840 5840 5841 5841 5841 5841 5842 5842 5842 5843 5843 5843 5843 5843 5843
5777 5780 5784 5788 5795 5799 5800 5801 5800 5804 5806 5808 5811 5813 5810 5816 5818 5820 5821 5823 5824 5827 5828 5828 5829 5830 5831 5832 5832 5833 5833 5834 5835 5835 5836 5836 5837 5837 5837 5838 5838 5838 5839 5839 5839 5839 5839 5839 5839
5772 5775 5778 5783 5789 5793 5795 5796 5795 5798 5801 5804 5806 5808 5806 5809 5813 5815 5817 5818 5820 5822 5823 5824 5825 5826 5827 5828 5828 5829 5829 5830 5830 5831 5832 5832 5833 5833 5833 5834 5834 5834 5835 5835 5835 5835 5835 5835 5835
5765 5769 5772 5777 5783 5788 5791 5790 5789 5792 5796 5798 5799 5803 5801 5802 5809 5810 5812 5813 5815 5817 5819 5820 5821 5822 5823 5824 5824 5825 5826 5826 5826 5827 5827 5828 5828 5829 5829 5829 5830 5830 5831 5831 5831 5831 5832 5831 5831
5758 5762 5765 5772 5778 5783 5784 5783 5782 5786 5790 5792 5794 5797 5796 5798 5804 5806 5807 5809 5811 5812 5814 5815 5817 5818 5819 5820 5821 5821 5822 5822 5822 5823 5823 5824 5824 5825 5825 5825 5826 5826 5826 5827 5827 5827 5827 5827 5827
5751 5755 5761 5767 5771 5773 5775 5775 5776 5780 5784 5787 5789 5791 5792 5794 5798 5800 5802 5804 5805 5807 5809 5811 5812 5814 5815 5816 5816 5817 5817 5818 5818 5819 5819 5820 5820 5820 5820 5821 5821 5822 5822 5822 5823 5823 5823 5823 5822
5744 5749 5754 5759 5762 5764 5767 5769 5771 5774 5777 5781 5784 5785 5787 5789 5792 5795 5796 5798 5800 5801 5803 5805 5807 5808 5810 5811 5812 5812 5813 5814 5814 5814 5815 5815 5816 5816 5816 5816 5816 5817 5817 5817 5818 5818 5818 5818 5818
5737 5741 5746 5750 5753 5757 5761 5763 5766 5768 5771 5775 5777 5778 5780 5784 5787 5789 5791 5792 5794 5796 5797 5799 5801 5802 5804 5805 5806 5807 5808 5809 5809 5810 5810 5811 5811 5811 5811 5811 5812 5812 5812 5812 5812 5812 5812 5812 5812
5728 5733 5738 5743 5746 5751 5755 5757 5759 5762 5766 5768 5770 5772 5775 5779 5782 5783 5785 5787 5788 5790 5792 5793 5794 5796 5797 5799 5800 5801 5803 5803 5804 5804 5805 5805 5806 5806 5806 5806 5806 5807 5807 5807 5807 5807 5806 5806 5806
5721 5726 5731 5735 5740 5744 5748 5750 5753 5757 5760 5762 5763 5766 5769 5772 5775 5777 5779 5781 5782 5784 5786 5787 5788 5789 5791 5793 5794 5795 5796 5797 5798 5799 5799 5799 5800 5800 5800 5801 5801 5801 5801 5801 5801 5800 5800 5800 5799
5714 5719 5724 5729 5733 5737 5740 5744 5748 5751 5752 5754 5757 5760 5763 5765 5768 5770 5772 5775 5777 5777 5779 5780 5782 5783 5785 5786 5788 5789 5790 5791 5792 5793 5793 5793 5794 5794 5795 5795 5795 5795 5795 5794 5794 5794 5794 5793 5792
5706 5711 5717 5722 5725 5729 5734 5739 5742 5743 5745 5748 5751 5753 5756 5758 5761 5764 5766 5768 5770 5771 5772 5773 5775 5777 5778 5779 5781 5782 5784 5785 5786 5787 5787 5788 5788 5788 5788 5789 5789 5789 5788 5788 5788 5787 5787 5786 5785
5699 5705 5710 5714 5718 5722 5726 5731 5735 5736 5739 5742 5744 5746 5749 5751 5754 5757 5759 5761 5763 5764 5765 5766 5768 5770 5771 5772 5774 5775 5777 5778 5779 5781 5781 5782 5782 5782 5782 5782 5782 5782 5782 5781 5781 5780 5779 5778 5778
5693 5698 5702 5707 5710 5715 5720 5724 5728 5730 5732 5735 5738 5740 5742 5744 5747 5749 5751 5753 5755 5756 5757 5759 5760 5763 5764 5765 5766 5768 5770 5771 5772 5773 5775 5775 5776 5776 5776 5775 5775 5775 5775 5774 5773 5772 5772 5771 5770
5686 5691 5696 5700 5704 5709 5713 5717 5721 5724 5726 5729 5731 5733 5734 5737 5739 5741 5743 5745 5746 5748 5749 5750 5752 5755 5756 5757 5759 5761 5762 5764 5765 5766 5767 5768 5769 5769 5769 5768 5768 5768 5767 5767 5766 5765 5764 5763 5762
5680 5685 5690 5694 5697 5702 5707 5711 5715 5717 5720 5721 5723 5725 5727 5729 5731 5733 5735 5736 5737 5739 5740 5741 5743 5745 5747 5749 5751 5752 5753 5755 5757 5759 5760 5761 5762 5762 5761 5761 5761 5760 5760 5759 5758 5757 5756 5754 5753
5675 5680 5684 5688 5692 5696 5700 5705 5709 5711 5712 5714 5716 5717 5718 5720 5722 5723 5724 5726 5727 5728 5730 5732 5734 5735 5737 5739 5741 5742 5745 5748 5749 5751 5753 5754 5754 5754 5754 5754 5753 5753 5752 5751 5750 5749 5748 5746 5744
5670 5675 5679 5683 5687 5690 5694 5697 5704 5704 5704 5706 5707 5708 5709 5710 5711 5712 5713 5715 5716 5717 5719 5721 5723 5724 5726 5729 5731 5734 5737 5739 5741 5743 5744 5746 5747 5747 5747 5746 5746 5745 5744 5743 5742 5741 5739 5737 5735
5665 5670 5674 5677 5681 5685 5688 5689 5697 5696 5696 5696 5697 5698 5698 5699 5699 5700 5701 5702 5703 5705 5706 5708 5710 5713 5715 5718 5722 5725 5727 5730 5732 5734 5736 5738 5739 5739 5739 5739 5738 5737 5736 5735 5734 5732 5730 5728 5726
5661 5666 5669 5671 5675 5680 5682 5683 5688 5686 5686 5685 5685 5685 5686 5686 5687 5687 5687 5688 5689 5690 5692 5694 5697 5700 5703 5707 5711 5714 5718 5721 5723 5726 5728 5729 5731 5731 5732 5731 5730 5729 5728 5727 5725 5723 5721 5719 5716
5657 5661 5664 5666 5669 5673 5673 5675 5681 5677 5674 5673 5673 5672 5672 5672 5672 5672 5672 5673 5674 5675 5677 5680 5683 5687 5690 5695 5700 5704 5708 5712 5714 5717 5719 5721 5722 5723 5724 5723 5722 5721 5720 5718 5716 5714 5712 5709 5706
5652 5656 5659 5661 5663 5665 5665 5667 5671 5667 5663 5661 5660 5659 5658 5658 5657 5657 5657 5657 5659 5660 5662 5665 5668 5672 5677 5682 5687 5692 5697 5702 5705 5708 5710 5713 5714 5715 5715 5715 5714 5712 5711 5710 5707 5705 5702 5699 5696
5647 5650 5653 5655 5655 5656 5657 5658 5659 5656 5653 5650 5649 5647 5645 5644 5642 5641 5641 5641 5642 5644 5646 5649 5653 5657 5663 5668 5674 5681 5687 5691 5695 5698 5701 5704 5705 5706 5707 5707 5705 5704 5703 5701 5698 5696 5693 5689 5686
5642 5645 5647 5648 5647 5648 5649 5650 5649 5645 5642 5640 5637 5634 5632 5630 5628 5626 5624 5624 5624 5626 5629 5633 5637 5642 5648 5655 5662 5670 5676 5681 5685 5689 5692 5695 5697 5698 5698 5698 5697 5696 5694 5692 5689 5686 5683 5679 5675
5637 5640 5640 5641 5641 5641 5640 5645 5641 5636 5632 5629 5626 5622 5619 5616 5613 5610 5607 5606 5606 5608 5612 5616 5622 5627 5635 5643 5651 5659 5665 5671 5676 5680 5684 5686 5688 5690 5690 5690 5689 5687 5685 5683 5680 5676 5673 5669 5664
5631 5633 5634 5635 5635 5633 5632 5637 5633 5628 5623 5620 5617 5612 5608 5603 5598 5594 5590 5587 5587 5589 5593 5599 5606 5614 5623 5632 5640 5648 5655 5661 5667 5672 5676 5678 5680 5682 5682 5681 5680 5678 5676 5673 5670 5666 5662 5658 5653